contact:dominique.lefevre@mio.osupytheas.fr, maurice.libes@osupytheas.fr, didier.mallarino@osupytheas.fr
Project:EMSO http://www.emso-fr.org/EMSO-France
Depth: 2436.0 m
Title:EMSO Ligure Ouest : Data MII capteur AQUADOPP
Date,Latitude,Longitude,X_East,Y_North,Z_Up,Amplitude_X,Amplitude_Y,Amplitude_Z,Batterie,SoundSpeed,Heading,Pitch,Roll,Pressure,TIS,Speed,Direction
, degrees North, degrees East, m.s-1, m.s-1,m.s-1, 1, 1, 1, Volt, m.s-1, degree, degree, degree, dbar, degree_C, m.s-1, degree
2019-05-31T00:09:04,42.805,6.029,-0.046,0.011,-0.043,101.0,104.0,97.0,13.4,1505.2,325.3,-0.8,1.8,2470.139,13.29,0.047,283.4
2019-05-31T00:12:05,42.805,6.029,-0.028,0.0,0.011,102.0,104.0,96.0,13.3,1505.2,325.2,-0.8,1.9,2470.18,13.3,0.028,270.0
2019-05-31T00:15:06,42.805,6.029,-0.039,0.005,-0.05,101.0,105.0,98.0,13.3,1505.3,324.1,-0.8,1.9,2470.065,13.31,0.039,277.3
2019-05-31T00:18:07,42.805,6.029,-0.041,0.006,0.0,101.0,105.0,99.0,13.4,1505.3,323.0,-0.7,1.8,2470.076,13.32,0.041,278.3
2019-05-31T00:21:08,42.805,6.029,-0.031,0.023,-0.013,102.0,105.0,98.0,13.4,1505.3,324.2,-0.7,1.8,2470.062,13.32,0.038,306.6
2019-05-31T00:24:09,42.805,6.029,-0.024,0.026,0.001,102.0,107.0,97.0,13.3,1505.3,324.9,-0.8,1.9,2470.048,13.32,0.035,317.3
2019-05-31T00:27:10,42.805,6.029,-0.064,0.006,-0.034,101.0,105.0,99.0,13.3,1505.3,325.1,-0.7,1.8,2470.063,13.32,0.064,275.4
2019-05-31T00:30:11,42.805,6.029,-0.014,0.021,0.017,100.0,104.0,99.0,13.4,1505.3,323.5,-0.7,1.9,2470.028,13.33,0.025,326.3
2019-05-31T00:33:12,42.805,6.029,-0.025,0.002,-0.032,103.0,107.0,97.0,13.4,1505.3,324.7,-0.8,1.8,2470.13,13.33,0.025,274.6
2019-05-31T00:36:13,42.805,6.029,-0.027,0.014,-0.032,103.0,105.0,97.0,13.4,1505.3,327.3,-0.7,1.8,2470.031,13.33,0.03,297.4
2019-05-31T00:39:14,42.805,6.029,-0.039,0.031,0.001,101.0,104.0,98.0,13.3,1505.3,326.2,-0.7,1.8,2470.012,13.33,0.049,308.5
2019-05-31T00:42:15,42.805,6.029,-0.034,0.016,-0.004,100.0,104.0,98.0,13.4,1505.3,326.7,-0.8,1.8,2470.093,13.33,0.037,295.2
2019-05-31T00:45:16,42.805,6.029,-0.03,-0.004,-0.036,101.0,104.0,97.0,13.3,1505.3,326.8,-0.8,1.9,2470.061,13.33,0.03,262.4
2019-05-31T00:48:17,42.805,6.029,-0.005,0.01,-0.011,101.0,104.0,97.0,13.4,1505.3,327.7,-0.7,1.9,2470.073,13.33,0.011,333.4
2019-05-31T00:51:18,42.805,6.029,-0.036,-0.001,-0.056,101.0,103.0,98.0,13.4,1505.3,326.3,-0.8,1.9,2470.045,13.33,0.036,268.4
2019-05-31T00:54:19,42.805,6.029,-0.021,-0.008,-0.02,101.0,104.0,97.0,13.4,1505.3,324.9,-0.8,1.9,2470.089,13.33,0.022,249.1
2019-05-31T00:57:20,42.805,6.029,-0.034,0.027,0.005,101.0,105.0,98.0,13.4,1505.3,325.0,-0.8,1.9,2470.052,13.33,0.043,308.5
2019-05-31T01:00:21,42.805,6.029,-0.039,0.017,-0.009,100.0,103.0,97.0,13.3,1505.3,322.9,-0.8,1.8,2470.034,13.33,0.042,293.5
2019-05-31T01:03:22,42.805,6.029,-0.04,0.019,-0.01,101.0,103.0,98.0,13.4,1505.3,325.7,-0.7,1.9,2470.059,13.32,0.044,295.4
2019-05-31T01:06:23,42.805,6.029,-0.034,0.016,-0.045,100.0,103.0,97.0,13.4,1505.3,326.9,-0.8,1.9,2470.096,13.33,0.037,295.2
2019-05-31T01:09:24,42.805,6.029,-0.047,0.013,-0.014,101.0,103.0,98.0,13.4,1505.3,327.8,-0.7,1.8,2470.05,13.32,0.048,285.5
2019-05-31T01:12:25,42.805,6.029,-0.019,0.005,-0.046,100.0,105.0,97.0,13.3,1505.3,326.1,-0.7,1.8,2470.081,13.33,0.019,284.7
2019-05-31T01:15:26,42.805,6.029,-0.034,0.008,-0.024,101.0,106.0,98.0,13.4,1505.3,326.3,-0.8,1.8,2470.072,13.33,0.034,283.2
2019-05-31T01:18:27,42.805,6.029,-0.049,-0.004,-0.027,101.0,102.0,100.0,13.3,1505.3,324.3,-0.7,1.9,2470.035,13.33,0.049,265.3
2019-05-31T01:21:28,42.805,6.029,-0.05,0.019,-0.019,101.0,106.0,99.0,13.4,1505.3,327.5,-0.8,1.8,2470.045,13.33,0.053,290.8
2019-05-31T01:24:29,42.805,6.029,-0.035,0.009,-0.046,103.0,105.0,98.0,13.4,1505.3,326.2,-0.8,1.9,2470.064,13.33,0.036,284.4
2019-05-31T01:27:30,42.805,6.029,-0.04,0.027,-0.042,101.0,106.0,98.0,13.3,1505.3,327.7,-0.7,1.9,2470.036,13.33,0.048,304.0
2019-05-31T01:30:31,42.805,6.029,-0.025,0.004,-0.005,103.0,103.0,98.0,13.4,1505.3,325.5,-0.7,1.9,2470.023,13.33,0.025,279.1
2019-05-31T01:33:32,42.805,6.029,-0.043,0.017,-0.013,102.0,105.0,97.0,13.4,1505.3,327.6,-0.8,1.8,2470.109,13.33,0.046,291.6
2019-05-31T01:36:33,42.805,6.029,-0.036,0.013,0.012,101.0,105.0,98.0,13.4,1505.3,323.3,-0.8,1.9,2470.086,13.32,0.038,289.9
2019-05-31T01:39:34,42.805,6.029,-0.055,0.007,-0.02,100.0,105.0,98.0,13.3,1505.3,324.4,-0.8,1.8,2470.094,13.32,0.055,277.3
2019-05-31T01:42:35,42.805,6.029,-0.021,-0.015,0.016,102.0,104.0,98.0,13.3,1505.3,323.6,-0.8,1.9,2470.05,13.33,0.025,234.5
2019-05-31T01:45:36,42.805,6.029,-0.038,-0.002,-0.03,101.0,106.0,97.0,13.3,1505.3,325.5,-0.8,1.9,2470.078,13.33,0.038,267.0
2019-05-31T01:48:37,42.805,6.029,-0.047,0.021,-0.022,101.0,105.0,98.0,13.4,1505.3,323.1,-0.8,1.8,2470.067,13.33,0.051,294.1
2019-05-31T01:51:38,42.805,6.029,-0.048,-0.002,-0.011,101.0,106.0,99.0,13.4,1505.3,325.8,-0.8,1.8,2470.081,13.33,0.048,267.6
2019-05-31T01:54:39,42.805,6.029,-0.032,0.01,-0.023,102.0,104.0,98.0,13.4,1505.3,326.7,-0.7,1.9,2470.068,13.33,0.033,287.4
2019-05-31T01:57:40,42.805,6.029,-0.031,0.021,-0.032,102.0,105.0,98.0,13.4,1505.3,328.2,-0.8,1.8,2470.071,13.33,0.037,304.1
2019-05-31T02:00:41,42.805,6.029,-0.025,0.003,-0.025,101.0,105.0,98.0,13.4,1505.3,326.9,-0.8,1.9,2470.084,13.33,0.025,276.8
2019-05-31T02:03:42,42.805,6.029,-0.003,0.013,-0.006,100.0,104.0,98.0,13.3,1505.3,327.6,-0.8,1.8,2470.073,13.33,0.013,347.0
2019-05-31T02:06:43,42.805,6.029,-0.054,0.02,-0.019,102.0,103.0,98.0,13.3,1505.3,325.9,-0.7,1.9,2470.066,13.33,0.057,290.3
2019-05-31T02:09:44,42.805,6.029,-0.026,0.017,-0.029,101.0,104.0,97.0,13.3,1505.3,327.5,-0.8,1.9,2470.058,13.33,0.031,303.2
2019-05-31T02:12:45,42.805,6.029,-0.046,0.008,-0.011,101.0,104.0,99.0,13.4,1505.3,326.6,-0.7,1.9,2470.054,13.33,0.046,279.9
2019-05-31T02:15:46,42.805,6.029,-0.049,0.011,-0.024,102.0,105.0,98.0,13.3,1505.3,324.9,-0.8,1.9,2470.062,13.32,0.05,282.7
2019-05-31T02:18:47,42.805,6.029,-0.04,-0.007,-0.042,102.0,105.0,99.0,13.3,1505.3,323.2,-0.8,1.8,2470.118,13.32,0.04,260.1
2019-05-31T02:21:48,42.805,6.029,-0.034,-0.01,-0.012,101.0,104.0,99.0,13.4,1505.3,325.4,-0.8,1.8,2470.138,13.32,0.035,253.6
2019-05-31T02:24:49,42.805,6.029,-0.03,-0.003,-0.038,101.0,105.0,98.0,13.4,1505.3,323.7,-0.7,1.8,2470.115,13.32,0.03,264.3
2019-05-31T02:27:50,42.805,6.029,-0.019,0.014,-0.012,102.0,104.0,98.0,13.4,1505.3,326.1,-0.8,1.9,2470.128,13.32,0.023,306.4
2019-05-31T02:30:51,42.805,6.029,-0.05,0.0,-0.031,102.0,104.0,99.0,13.4,1505.3,325.6,-0.8,1.8,2470.065,13.32,0.05,270.0
2019-05-31T02:33:52,42.805,6.029,-0.032,0.014,-0.04,101.0,106.0,97.0,13.3,1505.3,328.3,-0.7,1.9,2470.148,13.33,0.034,293.6
2019-05-31T02:36:53,42.805,6.029,-0.039,-0.003,0.01,101.0,103.0,98.0,13.4,1505.3,326.3,-0.8,1.8,2470.107,13.33,0.039,265.6
2019-05-31T02:39:54,42.805,6.029,-0.043,0.032,-0.007,101.0,105.0,98.0,13.3,1505.3,324.7,-0.8,1.9,2470.092,13.33,0.053,306.7
2019-05-31T02:42:55,42.805,6.029,-0.04,0.01,-0.028,102.0,106.0,98.0,13.4,1505.3,327.0,-0.8,1.8,2470.109,13.33,0.041,284.0
2019-05-31T02:45:56,42.805,6.029,-0.039,0.008,-0.027,101.0,105.0,97.0,13.3,1505.3,325.1,-0.7,1.8,2470.125,13.33,0.039,281.6
2019-05-31T02:48:57,42.805,6.029,-0.06,0.006,0.004,100.0,105.0,97.0,13.4,1505.3,322.9,-0.8,1.8,2470.112,13.33,0.06,275.7
2019-05-31T02:51:58,42.805,6.029,-0.034,0.023,0.01,100.0,105.0,97.0,13.3,1505.3,325.2,-0.8,1.9,2470.131,13.33,0.041,304.1
2019-05-31T02:54:59,42.805,6.029,-0.055,0.009,-0.013,100.0,105.0,97.0,13.3,1505.3,323.7,-0.8,1.8,2470.135,13.33,0.055,279.3
2019-05-31T02:58:00,42.805,6.029,-0.055,0.022,-0.03,100.0,105.0,97.0,13.4,1505.3,324.9,-0.7,1.8,2470.086,13.33,0.059,291.8
2019-05-31T03:01:01,42.805,6.029,-0.05,0.013,-0.014,101.0,106.0,97.0,13.4,1505.3,327.2,-0.8,1.8,2470.167,13.33,0.051,284.6
2019-05-31T03:04:02,42.805,6.029,-0.029,0.0,-0.036,101.0,105.0,99.0,13.3,1505.3,325.5,-0.8,1.9,2470.12,13.33,0.028,270.0
2019-05-31T03:07:03,42.805,6.029,-0.043,0.018,-0.005,102.0,105.0,99.0,13.3,1505.3,326.7,-0.8,1.9,2470.115,13.33,0.046,292.7
2019-05-31T03:10:04,42.805,6.029,-0.047,0.016,-0.027,101.0,106.0,98.0,13.3,1505.3,323.3,-0.8,1.8,2470.144,13.33,0.049,288.8
2019-05-31T03:13:05,42.805,6.029,-0.044,0.013,-0.038,100.0,107.0,98.0,13.4,1505.3,324.5,-0.7,1.8,2470.106,13.33,0.045,286.5
2019-05-31T03:16:06,42.805,6.029,-0.051,0.024,0.003,102.0,105.0,98.0,13.4,1505.3,323.6,-0.8,1.8,2470.09,13.33,0.056,295.2
2019-05-31T03:19:07,42.805,6.029,-0.047,0.007,0.004,101.0,105.0,100.0,13.3,1505.3,325.0,-0.8,1.9,2470.156,13.33,0.047,278.5
2019-05-31T03:22:08,42.805,6.029,-0.043,0.026,0.014,102.0,104.0,98.0,13.3,1505.3,323.6,-0.7,1.8,2470.144,13.33,0.05,301.2
2019-05-31T03:25:09,42.805,6.029,-0.024,0.012,-0.022,100.0,106.0,99.0,13.3,1505.3,327.2,-0.8,1.9,2470.159,13.33,0.026,296.6
2019-05-31T03:28:10,42.805,6.029,-0.045,0.029,0.011,102.0,104.0,98.0,13.4,1505.3,322.8,-0.8,1.9,2470.105,13.33,0.053,302.8
2019-05-31T03:31:11,42.805,6.029,-0.038,0.024,-0.009,101.0,105.0,97.0,13.4,1505.3,324.6,-0.7,1.9,2470.155,13.33,0.044,302.3
2019-05-31T03:34:12,42.805,6.029,-0.015,-0.003,-0.026,101.0,105.0,97.0,13.4,1505.3,323.6,-0.7,1.9,2470.14,13.33,0.015,258.7
2019-05-31T03:37:13,42.805,6.029,-0.053,0.018,-0.016,102.0,106.0,97.0,13.4,1505.3,326.7,-0.7,1.9,2470.18,13.33,0.055,288.8
2019-05-31T03:40:14,42.805,6.029,-0.049,0.02,-0.017,101.0,104.0,97.0,13.4,1505.3,325.4,-0.8,1.9,2470.181,13.33,0.052,292.2
2019-05-31T03:43:15,42.805,6.029,-0.064,0.048,-0.016,101.0,105.0,98.0,13.4,1505.3,327.7,-0.8,1.8,2470.158,13.33,0.079,306.9
2019-05-31T03:46:16,42.805,6.029,-0.049,0.043,-0.005,99.0,104.0,97.0,13.4,1505.3,327.2,-0.7,1.8,2470.152,13.33,0.065,311.3
2019-05-31T03:49:17,42.805,6.029,-0.051,0.031,-0.035,101.0,104.0,97.0,13.3,1505.3,328.3,-0.8,1.8,2470.149,13.33,0.059,301.3
2019-05-31T03:52:18,42.805,6.029,-0.039,0.007,-0.012,101.0,105.0,97.0,13.4,1505.3,326.4,-0.8,1.8,2470.133,13.33,0.039,280.2
2019-05-31T03:55:19,42.805,6.029,-0.034,0.015,0.011,99.0,106.0,98.0,13.4,1505.3,325.7,-0.8,1.9,2470.094,13.33,0.037,293.8
2019-05-31T03:58:20,42.805,6.029,-0.027,0.013,0.015,101.0,104.0,97.0,13.4,1505.3,324.8,-0.7,1.9,2470.102,13.33,0.029,295.7
2019-05-31T04:01:21,42.805,6.029,-0.031,0.018,-0.016,102.0,104.0,98.0,13.4,1505.3,323.9,-0.7,1.8,2470.109,13.33,0.035,300.1
2019-05-31T04:04:22,42.805,6.029,-0.022,0.024,0.005,101.0,107.0,99.0,13.4,1505.3,325.1,-0.7,1.8,2470.126,13.33,0.032,317.5
2019-05-31T04:07:23,42.805,6.029,-0.059,0.018,-0.019,102.0,105.0,97.0,13.4,1505.3,327.1,-0.7,1.9,2470.172,13.33,0.061,287.0
2019-05-31T04:10:24,42.805,6.029,-0.031,0.01,-0.03,103.0,105.0,97.0,13.4,1505.3,326.5,-0.7,1.9,2470.153,13.33,0.032,287.9
2019-05-31T04:13:25,42.805,6.029,-0.041,0.032,-0.006,103.0,105.0,97.0,13.4,1505.3,327.7,-0.7,1.9,2470.135,13.33,0.052,308.0
2019-05-31T04:16:26,42.805,6.029,-0.043,0.018,-0.005,101.0,104.0,97.0,13.4,1505.3,325.8,-0.7,1.9,2470.182,13.33,0.046,292.7
2019-05-31T04:19:27,42.805,6.029,-0.053,0.009,-0.012,101.0,103.0,98.0,13.3,1505.3,323.5,-0.8,1.8,2470.14,13.33,0.053,279.6
2019-05-31T04:22:28,42.805,6.029,-0.034,0.022,-0.028,100.0,105.0,98.0,13.4,1505.3,326.4,-0.7,1.9,2470.116,13.33,0.04,302.9
2019-05-31T04:25:29,42.805,6.029,-0.057,0.017,-0.014,101.0,105.0,98.0,13.4,1505.3,324.3,-0.8,1.8,2470.187,13.33,0.059,286.6
2019-05-31T04:28:30,42.805,6.029,-0.057,0.014,-0.027,102.0,107.0,98.0,13.4,1505.3,323.9,-0.8,1.8,2470.146,13.33,0.058,283.8
2019-05-31T04:31:31,42.805,6.029,-0.033,0.012,-0.035,101.0,105.0,98.0,13.4,1505.3,325.5,-0.8,1.9,2470.164,13.33,0.035,290.0
2019-05-31T04:34:32,42.805,6.029,-0.039,0.004,-0.023,100.0,105.0,99.0,13.4,1505.3,326.8,-0.7,1.8,2470.144,13.33,0.039,275.9
2019-05-31T04:37:33,42.805,6.029,-0.047,0.008,-0.02,101.0,106.0,96.0,13.4,1505.3,323.2,-0.8,1.8,2470.148,13.33,0.047,279.7
2019-05-31T04:40:34,42.805,6.029,-0.051,0.011,-0.042,100.0,104.0,99.0,13.4,1505.3,325.8,-0.8,1.8,2470.103,13.33,0.052,282.2
2019-05-31T04:43:35,42.805,6.029,-0.037,0.018,-0.006,102.0,104.0,100.0,13.4,1505.3,327.0,-0.8,1.8,2470.151,13.33,0.041,295.9
2019-05-31T04:46:36,42.805,6.029,-0.032,0.016,-0.031,99.0,105.0,99.0,13.4,1505.3,325.8,-0.7,1.8,2470.177,13.33,0.035,296.6
2019-05-31T04:49:37,42.805,6.029,-0.019,0.0,-0.017,103.0,104.0,97.0,13.3,1505.3,327.8,-0.7,1.9,2470.19,13.33,0.019,270.0
2019-05-31T04:52:38,42.805,6.029,-0.042,0.028,-0.001,101.0,106.0,97.0,13.4,1505.3,325.9,-0.7,1.8,2470.199,13.33,0.05,303.7
2019-05-31T04:55:39,42.805,6.029,-0.042,-0.007,-0.029,102.0,106.0,97.0,13.4,1505.3,325.2,-0.7,1.9,2470.145,13.33,0.042,260.5
2019-05-31T04:58:40,42.805,6.029,-0.086,-0.002,-0.042,100.0,105.0,97.0,13.3,1505.3,323.9,-0.8,1.8,2470.156,13.33,0.086,268.7
2019-05-31T05:01:41,42.805,6.029,-0.045,-0.004,-0.056,100.0,105.0,98.0,13.4,1505.3,326.5,-0.7,1.8,2470.193,13.33,0.045,264.9
2019-05-31T05:04:42,42.805,6.029,-0.024,0.027,-0.028,101.0,104.0,99.0,13.4,1505.3,325.9,-0.8,1.9,2470.169,13.32,0.036,318.4
2019-05-31T05:07:43,42.805,6.029,-0.04,0.013,-0.032,100.0,106.0,98.0,13.3,1505.3,325.7,-0.8,1.9,2470.146,13.33,0.042,288.0
2019-05-31T05:10:44,42.805,6.029,-0.044,0.018,-0.056,101.0,105.0,97.0,13.3,1505.3,327.2,-0.7,1.8,2470.155,13.33,0.047,292.2
2019-05-31T05:13:45,42.805,6.029,-0.04,0.024,-0.005,101.0,106.0,98.0,13.4,1505.3,325.4,-0.7,1.9,2470.186,13.33,0.046,301.0
2019-05-31T05:16:46,42.805,6.029,-0.042,0.016,0.0,99.0,104.0,99.0,13.4,1505.3,324.3,-0.8,1.9,2470.134,13.33,0.044,290.9
2019-05-31T05:19:47,42.805,6.029,-0.044,0.022,-0.042,100.0,106.0,98.0,13.4,1505.3,326.0,-0.7,1.8,2470.189,13.33,0.049,296.6
2019-05-31T05:22:48,42.805,6.029,-0.034,0.009,-0.011,101.0,105.0,97.0,13.3,1505.3,324.8,-0.8,1.8,2470.188,13.33,0.035,284.8
2019-05-31T05:25:49,42.805,6.029,-0.053,0.02,0.004,101.0,104.0,98.0,13.4,1505.3,326.3,-0.7,1.8,2470.135,13.33,0.056,290.7
2019-05-31T05:28:50,42.805,6.029,-0.033,0.012,-0.011,102.0,104.0,98.0,13.3,1505.3,325.1,-0.8,1.8,2470.178,13.33,0.035,290.0
2019-05-31T05:31:51,42.805,6.029,-0.036,0.026,-0.022,100.0,104.0,98.0,13.4,1505.3,325.9,-0.7,1.9,2470.156,13.33,0.044,305.8
2019-05-31T05:34:52,42.805,6.029,-0.042,0.004,-0.046,101.0,107.0,97.0,13.4,1505.3,326.6,-0.8,1.8,2470.185,13.33,0.042,275.4
2019-05-31T05:37:53,42.805,6.029,-0.025,0.011,-0.026,101.0,105.0,98.0,13.4,1505.3,326.0,-0.7,1.9,2470.194,13.33,0.027,293.7
2019-05-31T05:40:54,42.805,6.029,-0.037,0.014,0.005,100.0,104.0,98.0,13.4,1505.3,323.0,-0.7,1.8,2470.198,13.33,0.039,290.7
2019-05-31T05:43:55,42.805,6.029,-0.028,0.015,0.0,103.0,104.0,99.0,13.4,1505.3,325.4,-0.8,1.9,2470.14,13.33,0.031,298.2
2019-05-31T05:46:56,42.805,6.029,-0.051,0.035,-0.013,100.0,106.0,97.0,13.3,1505.3,323.0,-0.8,1.8,2470.163,13.33,0.061,304.5
2019-05-31T05:49:57,42.805,6.029,-0.039,-0.007,-0.045,102.0,106.0,97.0,13.3,1505.3,324.7,-0.8,1.9,2470.164,13.33,0.039,259.8
2019-05-31T05:52:58,42.805,6.029,-0.026,0.013,-0.014,101.0,105.0,99.0,13.4,1505.3,327.0,-0.8,1.9,2470.14,13.33,0.029,296.6
2019-05-31T05:55:59,42.805,6.029,0.0,-0.002,-0.009,101.0,107.0,97.0,13.4,1505.3,326.3,-0.8,1.9,2470.191,13.33,0.002,180.0
2019-05-31T05:59:00,42.805,6.029,-0.03,-0.013,-0.026,101.0,106.0,98.0,13.4,1505.3,328.1,-0.7,1.8,2470.162,13.33,0.032,246.6
2019-05-31T06:02:01,42.805,6.029,-0.049,0.016,-0.009,101.0,104.0,98.0,13.3,1505.3,326.4,-0.7,1.8,2470.143,13.33,0.051,288.1
2019-05-31T06:05:02,42.805,6.029,-0.05,0.008,-0.032,101.0,104.0,97.0,13.4,1505.3,327.8,-0.8,1.8,2470.147,13.33,0.05,279.1
2019-05-31T06:08:03,42.805,6.029,-0.036,0.003,-0.021,100.0,105.0,98.0,13.3,1505.3,327.0,-0.7,1.9,2470.135,13.33,0.036,274.8
2019-05-31T06:11:04,42.805,6.029,-0.064,0.015,-0.076,103.0,106.0,98.0,13.4,1505.3,326.3,-0.7,1.9,2470.113,13.33,0.065,283.2
2019-05-31T06:14:05,42.805,6.029,-0.02,0.015,-0.01,101.0,104.0,98.0,13.3,1505.3,323.2,-0.7,1.8,2470.133,13.33,0.025,306.9
2019-05-31T06:17:06,42.805,6.029,-0.018,-0.003,-0.052,101.0,105.0,97.0,13.4,1505.3,326.3,-0.8,1.9,2470.099,13.33,0.018,260.5
2019-05-31T06:20:07,42.805,6.029,-0.023,0.027,-0.031,101.0,104.0,98.0,13.3,1505.3,327.1,-0.8,1.9,2470.168,13.33,0.035,319.6
2019-05-31T06:23:08,42.805,6.029,-0.056,0.013,-0.057,100.0,106.0,98.0,13.4,1505.3,327.0,-0.7,1.9,2470.138,13.33,0.057,283.1
2019-05-31T06:26:09,42.805,6.029,-0.033,0.015,-0.039,100.0,104.0,98.0,13.4,1505.3,327.7,-0.7,1.8,2470.132,13.33,0.036,294.4
2019-05-31T06:29:10,42.805,6.029,-0.004,0.007,0.012,100.0,103.0,98.0,13.4,1505.3,326.4,-0.8,1.8,2470.118,13.33,0.008,330.3
2019-05-31T06:32:11,42.805,6.029,-0.039,-0.008,-0.029,100.0,106.0,99.0,13.4,1505.3,324.6,-0.8,1.8,2470.134,13.33,0.039,258.4
2019-05-31T06:35:12,42.805,6.029,-0.004,0.001,-0.01,101.0,105.0,99.0,13.4,1505.3,325.3,-0.7,1.8,2470.164,13.33,0.004,284.0
2019-05-31T06:38:13,42.805,6.029,-0.03,0.019,-0.015,101.0,104.0,97.0,13.4,1505.3,323.1,-0.8,1.9,2470.166,13.33,0.035,302.3
2019-05-31T06:41:14,42.805,6.029,-0.033,0.036,-0.004,100.0,104.0,97.0,13.4,1505.3,325.5,-0.8,1.8,2470.15,13.33,0.048,317.5
2019-05-31T06:44:15,42.805,6.029,-0.057,0.03,-0.03,100.0,105.0,96.0,13.4,1505.3,323.7,-0.8,1.8,2470.179,13.33,0.064,297.8
2019-05-31T06:47:16,42.805,6.029,-0.035,-0.001,-0.007,101.0,104.0,97.0,13.4,1505.3,324.8,-0.7,1.8,2470.142,13.33,0.035,268.4
2019-05-31T06:50:17,42.805,6.029,0.005,0.0,0.0,100.0,103.0,98.0,13.4,1505.3,323.3,-0.8,1.9,2470.13,13.33,0.005,90.0
2019-05-31T06:53:18,42.805,6.029,-0.026,0.022,-0.035,100.0,105.0,97.0,13.4,1505.3,324.7,-0.7,1.9,2470.13,13.33,0.034,310.2
2019-05-31T06:56:19,42.805,6.029,-0.022,0.018,-0.044,100.0,105.0,99.0,13.3,1505.3,323.8,-0.7,1.8,2470.093,13.33,0.028,309.3
2019-05-31T06:59:20,42.805,6.029,-0.036,0.008,-0.027,102.0,106.0,96.0,13.4,1505.3,324.2,-0.8,1.9,2470.144,13.33,0.036,282.5
2019-05-31T07:02:21,42.805,6.029,-0.03,0.0,-0.02,101.0,104.0,98.0,13.4,1505.3,323.2,-0.8,1.9,2470.142,13.33,0.03,270.0
2019-05-31T07:05:22,42.805,6.029,-0.038,0.008,0.0,101.0,105.0,97.0,13.4,1505.3,325.2,-0.8,1.8,2470.134,13.33,0.038,281.9
2019-05-31T07:08:23,42.805,6.029,-0.031,0.006,-0.016,101.0,104.0,99.0,13.4,1505.3,322.8,-0.8,1.9,2470.162,13.33,0.031,281.0
2019-05-31T07:11:24,42.805,6.029,-0.033,0.001,0.0,101.0,105.0,99.0,13.3,1505.3,324.3,-0.7,1.8,2470.094,13.33,0.033,271.7
2019-05-31T07:14:25,42.805,6.029,-0.058,-0.019,-0.022,101.0,105.0,98.0,13.4,1505.3,323.9,-0.8,1.9,2470.098,13.33,0.061,251.9
2019-05-31T07:17:26,42.805,6.029,-0.033,0.012,-0.028,102.0,105.0,100.0,13.3,1505.3,324.4,-0.8,1.8,2470.131,13.33,0.035,290.0
2019-05-31T07:20:27,42.805,6.029,-0.017,0.001,0.011,102.0,105.0,97.0,13.3,1505.3,323.8,-0.8,1.8,2470.123,13.33,0.017,273.4
2019-05-31T07:23:28,42.805,6.029,0.0,0.006,-0.001,101.0,104.0,98.0,13.4,1505.3,326.6,-0.7,1.9,2470.091,13.33,0.006,0.0
2019-05-31T07:26:29,42.805,6.029,-0.013,0.025,-0.025,101.0,103.0,98.0,13.4,1505.3,326.8,-0.7,1.9,2470.111,13.33,0.028,332.5
2019-05-31T07:29:30,42.805,6.029,-0.05,0.026,-0.023,101.0,103.0,98.0,13.3,1505.3,325.2,-0.7,1.9,2470.085,13.33,0.056,297.5
2019-05-31T07:32:31,42.805,6.029,-0.021,-0.005,-0.022,101.0,104.0,98.0,13.4,1505.3,327.2,-0.8,1.9,2470.131,13.33,0.021,256.6
2019-05-31T07:35:32,42.805,6.029,-0.015,0.016,0.011,101.0,106.0,96.0,13.4,1505.3,326.9,-0.7,1.9,2470.129,13.33,0.021,316.9
2019-05-31T07:38:33,42.805,6.029,-0.043,-0.004,-0.02,100.0,105.0,98.0,13.4,1505.3,327.8,-0.8,1.8,2470.13,13.33,0.043,264.7
2019-05-31T07:41:34,42.805,6.029,-0.03,0.006,-0.013,101.0,104.0,98.0,13.3,1505.3,325.6,-0.8,1.9,2470.119,13.33,0.03,281.3
2019-05-31T07:44:35,42.805,6.029,-0.018,0.007,-0.024,101.0,104.0,97.0,13.4,1505.3,327.5,-0.8,1.8,2470.098,13.33,0.019,291.2
2019-05-31T07:47:36,42.805,6.029,-0.019,-0.001,-0.012,101.0,104.0,97.0,13.4,1505.3,326.4,-0.7,1.8,2470.077,13.33,0.019,267.0
2019-05-31T07:50:37,42.805,6.029,-0.049,-0.004,-0.018,100.0,104.0,97.0,13.3,1505.3,323.3,-0.7,1.8,2470.107,13.33,0.049,265.3
2019-05-31T07:53:38,42.805,6.029,-0.015,0.01,0.009,101.0,103.0,97.0,13.4,1505.3,327.4,-0.8,1.8,2470.087,13.33,0.018,303.7
2019-05-31T07:56:39,42.805,6.029,-0.025,-0.003,0.017,101.0,103.0,96.0,13.3,1505.3,325.2,-0.7,1.9,2470.089,13.33,0.025,263.2
2019-05-31T07:59:40,42.805,6.029,-0.021,0.014,0.005,101.0,105.0,97.0,13.4,1505.3,323.1,-0.7,1.8,2470.103,13.33,0.025,303.7
2019-05-31T08:02:41,42.805,6.029,-0.031,0.02,0.004,100.0,104.0,98.0,13.4,1505.3,325.2,-0.8,1.9,2470.089,13.33,0.036,302.8
2019-05-31T08:05:42,42.805,6.029,-0.002,0.012,0.0,101.0,104.0,98.0,13.4,1505.3,325.2,-0.7,1.9,2470.096,13.33,0.012,350.5
2019-05-31T08:08:43,42.805,6.029,-0.03,0.004,-0.013,100.0,103.0,99.0,13.4,1505.3,325.3,-0.8,1.9,2470.093,13.33,0.03,277.6
2019-05-31T08:11:44,42.805,6.029,-0.024,0.003,-0.007,102.0,102.0,98.0,13.3,1505.3,323.5,-0.7,1.9,2470.025,13.33,0.024,277.1
2019-05-31T08:14:45,42.805,6.029,-0.018,0.002,-0.022,101.0,104.0,99.0,13.4,1505.3,326.5,-0.8,1.8,2470.075,13.33,0.018,276.3
2019-05-31T08:17:46,42.805,6.029,-0.046,0.011,-0.013,100.0,104.0,99.0,13.4,1505.3,324.9,-0.7,1.8,2470.069,13.33,0.047,283.4
2019-05-31T08:20:47,42.805,6.029,-0.014,0.006,0.012,101.0,104.0,99.0,13.4,1505.3,325.5,-0.8,1.8,2470.085,13.33,0.015,293.2
2019-05-31T08:23:48,42.805,6.029,-0.029,-0.016,-0.05,102.0,104.0,98.0,13.4,1505.3,322.7,-0.7,1.9,2470.079,13.33,0.033,241.1
2019-05-31T08:26:49,42.805,6.029,-0.028,0.005,-0.041,104.0,102.0,98.0,13.4,1505.3,326.4,-0.7,1.9,2470.024,13.33,0.028,280.1
2019-05-31T08:29:50,42.805,6.029,-0.007,0.01,0.006,101.0,104.0,98.0,13.4,1505.3,323.7,-0.7,1.9,2470.1,13.33,0.012,325.0
2019-05-31T08:32:51,42.805,6.029,-0.037,-0.01,-0.047,101.0,104.0,99.0,13.4,1505.3,324.9,-0.8,1.9,2470.06,13.33,0.038,254.9
2019-05-31T08:35:52,42.805,6.029,-0.003,-0.007,-0.004,101.0,107.0,98.0,13.4,1505.3,326.9,-0.8,1.8,2470.069,13.33,0.007,203.2
2019-05-31T08:38:53,42.805,6.029,-0.037,0.002,-0.006,101.0,104.0,97.0,13.4,1505.3,325.4,-0.8,1.9,2470.084,13.33,0.037,273.1
2019-05-31T08:41:54,42.805,6.029,-0.032,-0.001,-0.007,100.0,102.0,98.0,13.4,1505.3,322.7,-0.8,1.9,2470.092,13.32,0.032,268.2
2019-05-31T08:44:55,42.805,6.029,0.0,0.002,-0.017,99.0,104.0,99.0,13.4,1505.3,324.3,-0.7,1.8,2470.091,13.32,0.002,0.0
2019-05-31T08:47:56,42.805,6.029,-0.035,-0.017,-0.008,102.0,104.0,97.0,13.4,1505.3,324.2,-0.8,1.9,2470.037,13.32,0.038,244.1
2019-05-31T08:50:57,42.805,6.029,-0.008,0.02,-0.03,101.0,104.0,98.0,13.3,1505.3,324.6,-0.7,1.9,2470.075,13.32,0.021,338.2
2019-05-31T08:53:58,42.805,6.029,-0.054,0.012,-0.046,101.0,104.0,97.0,13.4,1505.3,324.9,-0.7,1.9,2470.045,13.33,0.055,282.5
2019-05-31T08:56:59,42.805,6.029,-0.041,0.015,-0.028,101.0,102.0,98.0,13.4,1505.3,326.1,-0.8,1.8,2470.033,13.32,0.043,290.1
2019-05-31T09:00:00,42.805,6.029,-0.033,-0.01,-0.024,102.0,104.0,99.0,13.4,1505.3,327.5,-0.7,1.8,2470.044,13.33,0.034,253.1
2019-05-31T09:03:01,42.805,6.029,-0.044,-0.008,-0.022,101.0,103.0,99.0,13.4,1505.3,325.3,-0.8,1.9,2469.995,13.33,0.044,259.7
2019-05-31T09:06:02,42.805,6.029,-0.032,0.0,-0.022,100.0,104.0,98.0,13.4,1505.3,326.7,-0.8,1.8,2470.039,13.32,0.032,270.0
2019-05-31T09:09:03,42.805,6.029,-0.024,-0.008,-0.042,100.0,104.0,98.0,13.4,1505.3,326.4,-0.7,1.8,2470.05,13.32,0.025,251.6
2019-05-31T09:12:04,42.805,6.029,-0.045,-0.003,-0.018,103.0,103.0,98.0,13.4,1505.3,326.0,-0.8,1.8,2470.033,13.32,0.045,266.2
2019-05-31T09:15:05,42.805,6.029,-0.031,0.028,-0.039,102.0,104.0,98.0,13.4,1505.3,325.8,-0.8,1.9,2470.01,13.32,0.041,312.1
2019-05-31T09:18:06,42.805,6.029,-0.004,-0.003,0.008,101.0,103.0,100.0,13.4,1505.3,325.2,-0.7,1.8,2470.038,13.32,0.005,233.1
2019-05-31T09:21:07,42.805,6.029,-0.032,-0.007,0.0,101.0,104.0,98.0,13.4,1505.3,325.5,-0.8,1.8,2470.031,13.32,0.032,257.7
2019-05-31T09:24:08,42.805,6.029,-0.034,-0.004,-0.006,103.0,103.0,97.0,13.4,1505.3,323.4,-0.8,1.9,2470.019,13.32,0.034,263.3
2019-05-31T09:27:09,42.805,6.029,-0.028,-0.003,-0.037,101.0,104.0,99.0,13.3,1505.3,325.2,-0.7,1.8,2469.994,13.32,0.028,263.9
2019-05-31T09:30:10,42.805,6.029,-0.023,0.004,0.007,102.0,104.0,99.0,13.4,1505.3,324.7,-0.7,1.8,2470.024,13.32,0.023,279.9
2019-05-31T09:33:11,42.805,6.029,-0.003,-0.007,-0.024,100.0,105.0,99.0,13.3,1505.3,326.3,-0.7,1.9,2470.031,13.32,0.007,203.2
2019-05-31T09:36:12,42.805,6.029,-0.012,0.008,-0.011,101.0,103.0,98.0,13.4,1505.3,327.1,-0.8,1.9,2470.018,13.32,0.014,303.7
2019-05-31T09:39:13,42.805,6.029,-0.026,0.001,-0.013,101.0,104.0,97.0,13.4,1505.3,327.5,-0.7,1.9,2470.022,13.32,0.026,272.2